Вернуться в каталог

STARLINK-4164

АктивенСвязьVLEO
NORAD 53282·PAYLOAD·🇺🇸 United States

Запущен Jul 24, 2022 с Cape Canaveral Space Force Station

Loading…

Ближайшие Пролёты (ближайшие 24 часа)

TLE

СвежийSource: CelesTrak SupGP

Эпоха: Sep 14, 2026, 21:11 UTC

1 53282C 22086AS  26257.88312500  .00044200  00000+0  13416-2 0  2570
2 53282  53.1596  40.1872 0001193  77.6594  11.7614 15.33518694    11

Отслеживайте STARLINK-4164 в реальном времени с AllMySat

Download on the App Store